| time (UTC) | temp C | wind direction | speed KPH | gust KPH | rain 1hr cm | rain 24hr cm | rain mn cm | humidity % | barometer mb |
| 20260509021555 | 9 | 14 | 0.0 | 4.8 | 0.00 | 0.03 | 0.00 | 92 | 1019.1 |
| 20260509020053 | 9 | 14 | 1.6 | 3.2 | 0.00 | 0.03 | 0.00 | 92 | 1019.1 |
| 20260509014551 | 9 | 14 | 0.0 | 3.2 | 0.00 | 0.03 | 0.00 | 91 | 1019.0 |
| 20260509013055 | 9 | 14 | 0.0 | 4.8 | 0.00 | 0.03 | 0.00 | 91 | 1019.0 |
| 20260509011548 | 9 | 14 | 1.6 | 3.2 | 0.00 | 0.03 | 0.00 | 89 | 1019.0 |
| 20260509010045 | 10 | 14 | 0.0 | 3.2 | 0.00 | 0.03 | 0.00 | 88 | 1018.9 |
| 20260509004556 | 10 | 14 | 0.0 | 1.6 | 0.00 | 0.03 | 0.00 | 87 | 1018.8 |
| 20260509003044 | 10 | 14 | 0.0 | 3.2 | 0.00 | 0.03 | 0.00 | 86 | 1018.9 |
| 20260509001550 | 10 | 15 | 0.0 | 0.0 | 0.00 | 0.03 | 0.00 | 85 | 1019.0 |
| 20260509000043 | 10 | 15 | 1.6 | 4.8 | 0.00 | 0.03 | 0.00 | 86 | 1019.1 |
| 20260508234542 | 10 | 15 | 0.0 | 3.2 | 0.00 | 0.03 | 0.00 | 87 | 1019.1 |
| 20260508233040 | 10 | 14 | 0.0 | 0.0 | 0.00 | 0.03 | 0.00 | 87 | 1019.1 |
| 20260508231539 | 10 | 14 | 0.0 | 0.0 | 0.00 | 0.03 | 0.00 | 87 | 1019.2 |
| 20260508230039 | 10 | 15 | 0.0 | 0.0 | 0.00 | 0.03 | 0.00 | 87 | 1019.2 |
| 20260508224547 | 10 | 15 | 0.0 | 3.2 | 0.00 | 0.03 | 0.00 | 88 | 1019.1 |
| 20260508223135 | 10 | 15 | 0.0 | 1.6 | 0.00 | 0.03 | 0.00 | 88 | 1019.1 |
| 20260508221536 | 10 | 15 | 1.6 | 3.2 | 0.00 | 0.03 | 0.00 | 88 | 1019.1 |
| 20260508220033 | 10 | 15 | 1.6 | 4.8 | 0.00 | 0.03 | 0.00 | 88 | 1019.1 |
| 20260508214550 | 10 | 14 | 0.0 | 3.2 | 0.00 | 0.03 | 0.03 | 88 | 1019.1 |
| 20260508213033 | 10 | 14 | 0.0 | 3.2 | 0.00 | 0.03 | 0.03 | 89 | 1019.2 |
| 20260508211530 | 10 | 14 | 1.6 | 3.2 | 0.00 | 0.03 | 0.03 | 89 | 1019.2 |
| 20260508210033 | 10 | 14 | 1.6 | 3.2 | 0.00 | 0.03 | 0.03 | 89 | 1019.2 |
| 20260508204534 | 10 | 14 | 1.6 | 3.2 | 0.00 | 0.03 | 0.03 | 89 | 1019.1 |
| 20260508203028 | 10 | 14 | 0.0 | 3.2 | 0.00 | 0.03 | 0.03 | 89 | 1019.1 |
| 20260508201527 | 11 | 14 | 0.0 | 3.2 | 0.00 | 0.03 | 0.03 | 88 | 1019.0 |
| 20260508200030 | 11 | 14 | 1.6 | 1.6 | 0.00 | 0.03 | 0.03 | 87 | 1019.0 |
| 20260508194525 | 11 | 14 | 0.0 | 1.6 | 0.00 | 0.05 | 0.03 | 85 | 1018.9 |
| 20260508193024 | 11 | 14 | 0.0 | 1.6 | 0.00 | 0.05 | 0.03 | 84 | 1018.9 |
| 20260508191524 | 11 | 14 | 0.0 | 0.0 | 0.00 | 0.05 | 0.03 | 82 | 1018.8 |
| 20260508190044 | 11 | 14 | 0.0 | 1.6 | 0.00 | 0.05 | 0.03 | 82 | 1018.7 |
| 20260508184530 | 11 | 14 | 1.6 | 3.2 | 0.00 | 0.18 | 0.03 | 80 | 1018.7 |
| 20260508183033 | 11 | 14 | 1.6 | 4.8 | 0.00 | 0.18 | 0.03 | 80 | 1018.6 |
| 20260508181522 | 11 | 14 | 1.6 | 4.8 | 0.00 | 0.18 | 0.03 | 79 | 1018.5 |
| 20260508180021 | 12 | 15 | 3.2 | 4.8 | 0.00 | 0.18 | 0.03 | 77 | 1018.3 |
| 20260508150036 | 12 | 43 | 3.2 | 8.0 | 0.00 | 0.53 | 0.03 | 73 | 1018.1 |
| 20260508144540 | 12 | 150 | 1.6 | 8.0 | 0.00 | 0.58 | 0.03 | 73 | 1018.2 |
| 20260508143035 | 12 | 53 | 3.2 | 8.0 | 0.00 | 0.58 | 0.03 | 74 | 1018.2 |
| 20260508141538 | 12 | 110 | 3.2 | 6.4 | 0.00 | 0.58 | 0.03 | 73 | 1018.3 |
| 20260508140033 | 12 | 9 | 4.8 | 8.0 | 0.00 | 0.58 | 0.03 | 74 | 1018.3 |
| 20260508134535 | 12 | 39 | 3.2 | 8.0 | 0.00 | 0.58 | 0.03 | 75 | 1018.4 |
| 20260508133031 | 11 | 65 | 3.2 | 8.0 | 0.00 | 0.58 | 0.03 | 76 | 1018.4 |
| 20260508131530 | 11 | 84 | 3.2 | 14.5 | 0.00 | 0.58 | 0.03 | 76 | 1018.5 |
| 20260508130034 | 11 | 59 | 6.4 | 12.9 | 0.00 | 0.58 | 0.03 | 78 | 1018.6 |
| 20260508124527 | 11 | 46 | 4.8 | 9.7 | 0.00 | 0.61 | 0.03 | 76 | 1018.7 |
| 20260508123026 | 11 | 86 | 4.8 | 12.9 | 0.00 | 0.61 | 0.03 | 76 | 1018.7 |
| 20260508121525 | 11 | 45 | 6.4 | 11.3 | 0.00 | 0.61 | 0.03 | 78 | 1018.7 |
| 20260508120024 | 11 | 49 | 6.4 | 11.3 | 0.00 | 0.61 | 0.03 | 78 | 1018.8 |
| 20260508114523 | 11 | 79 | 6.4 | 8.0 | 0.00 | 0.61 | 0.03 | 76 | 1018.7 |
| 20260508113023 | 11 | 55 | 3.2 | 8.0 | 0.00 | 0.61 | 0.03 | 77 | 1018.7 |
| 20260508111520 | 11 | 44 | 4.8 | 8.0 | 0.00 | 0.61 | 0.03 | 77 | 1018.7 |
| 20260508110018 | 10 | 24 | 3.2 | 6.4 | 0.00 | 0.61 | 0.03 | 80 | 1018.8 |
| 20260508104516 | 10 | 62 | 3.2 | 6.4 | 0.00 | 0.61 | 0.03 | 81 | 1018.8 |
| 20260508103018 | 10 | 69 | 3.2 | 6.4 | 0.00 | 0.61 | 0.03 | 81 | 1018.8 |
| 20260508101513 | 10 | 90 | 3.2 | 6.4 | 0.00 | 0.61 | 0.03 | 82 | 1018.8 |
| 20260508100013 | 10 | 38 | 1.6 | 8.0 | 0.03 | 0.61 | 0.03 | 84 | 1018.8 |
| 20260508094508 | 10 | 355 | 3.2 | 8.0 | 0.03 | 0.61 | 0.03 | 84 | 1018.8 |
| 20260508093107 | 9 | 48 | 4.8 | 9.7 | 0.03 | 0.61 | 0.03 | 85 | 1018.8 |
| 20260508091510 | 9 | 49 | 3.2 | 8.0 | 0.03 | 0.61 | 0.03 | 87 | 1018.8 |
| 20260508090008 | 9 | 42 | 3.2 | 8.0 | 0.00 | 0.58 | 0.00 | 87 | 1018.7 |
| 20260508084601 | 9 | 70 | 1.6 | 8.0 | 0.00 | 0.61 | 0.00 | 88 | 1018.6 |
| 20260508083100 | 9 | 74 | 4.8 | 6.4 | 0.00 | 0.61 | 0.00 | 89 | 1018.6 |
| 20260508081551 | 9 | 16 | 4.8 | 8.0 | 0.00 | 0.61 | 0.00 | 90 | 1018.6 |
| 20260508080053 | 9 | 63 | 3.2 | 6.4 | 0.00 | 0.61 | 0.00 | 92 | 1018.5 |
| 20260508074547 | 8 | 38 | 0.0 | 6.4 | 0.00 | 0.61 | 0.00 | 93 | 1018.4 |
| 20260508073044 | 8 | 34 | 3.2 | 6.4 | 0.00 | 0.61 | 0.00 | 94 | 1018.2 |
| 20260508071544 | 8 | 40 | 3.2 | 8.0 | 0.00 | 0.61 | 0.00 | 95 | 1018.2 |
| 20260508070041 | 8 | 39 | 1.6 | 6.4 | 0.00 | 0.61 | 0.00 | 96 | 1018.1 |
| 20260508064541 | 8 | 39 | 3.2 | 8.0 | 0.00 | 0.61 | 0.00 | 96 | 1017.9 |
| 20260508063055 | 8 | 19 | 1.6 | 4.8 | 0.00 | 0.61 | 0.00 | 96 | 1017.8 |
| 20260508061536 | 8 | 19 | 1.6 | 4.8 | 0.00 | 0.61 | 0.00 | 96 | 1017.7 |
| 20260508060033 | 8 | 19 | 1.6 | 6.4 | 0.00 | 0.61 | 0.00 | 97 | 1017.6 |
| 20260508054532 | 8 | 19 | 1.6 | 6.4 | 0.00 | 0.61 | 0.00 | 97 | 1017.4 |
| 20260508053031 | 7 | 15 | 1.6 | 4.8 | 0.00 | 0.61 | 0.00 | 96 | 1017.3 |
| 20260508051530 | 7 | 15 | 1.6 | 4.8 | 0.00 | 0.61 | 0.00 | 97 | 1017.3 |
| 20260508050037 | 7 | 15 | 1.6 | 4.8 | 0.00 | 0.61 | 0.00 | 97 | 1017.3 |
| 20260508044528 | 7 | 15 | 0.0 | 0.0 | 0.00 | 0.61 | 0.00 | 96 | 1017.3 |
| 20260508043031 | 7 | 15 | 0.0 | 0.0 | 0.00 | 0.61 | 0.00 | 96 | 1017.2 |
| 20260508041526 | 7 | 15 | 0.0 | 0.0 | 0.00 | 0.61 | 0.00 | 96 | 1017.1 |
| 20260508040034 | 7 | 15 | 0.0 | 0.0 | 0.00 | 0.61 | 0.00 | 96 | 1017.1 |
| 20260508034524 | 7 | 15 | 0.0 | 0.0 | 0.00 | 0.61 | 0.00 | 96 | 1017.1 |
| 20260508033023 | 7 | 15 | 0.0 | 1.6 | 0.00 | 0.61 | 0.00 | 96 | 1017.0 |
| 20260508031522 | 7 | 15 | 3.2 | 4.8 | 0.00 | 0.61 | 0.00 | 96 | 1016.9 |
| 20260508030025 | 7 | 15 | 0.0 | 0.0 | 0.00 | 0.61 | 0.00 | 96 | 1016.8 |
| 20260508024519 | 7 | 15 | 0.0 | 0.0 | 0.00 | 0.61 | 0.00 | 96 | 1016.9 |
| 20260508023019 | 7 | 15 | 0.0 | 0.0 | 0.00 | 0.61 | 0.00 | 96 | 1016.8 |